Weather History for Lewisburg, WV

Change the Weather History Date:

Saturday, February 2, 2013

  Actual Average Record
Temperature  
Mean Temperature 12 °F 30 °F  
Max Temperature 24 °F 40 °F 69 °F (1988)
Min Temperature 1 °F 19 °F 1 °F (2013)
Degree Days  
Heating Degree Days 52    
Month to date heating degree days  
Since 1 July heating degree days  
Cooling Degree Days 0    
Month to date cooling degree days  
Year to date cooling degree days  
Moisture  
Dew Point 9 °F    
Average Humidity 81    
Maximum Humidity 100    
Minimum Humidity 54    
Precipitation  
Precipitation 0.05 in 0.11 in 1.19 in (1973)
Month to date precipitation 0.21  
Year to date precipitation 3.36  
Snow  
Snow 0.00 in - - ()
Month to date snowfall  
Since 1 July snowfall  
Snow Depth -    
Sea Level Pressure  
Sea Level Pressure 30.10 in    
Wind  
Wind Speed 1 mph (SW)    
Max Wind Speed 8 mph    
Max Gust Speed -    
Visibility 7 miles    
Events Snow    
T = Trace of Precipitation, MM = Missing Value Source: NWS Daily Summary

Daily Weather History Graph

Daily Weather History Graph

Search for Another Location

Airport:

Trip Planner

Search our weather history database for the weather conditions in past years. The results will help you decide how hot, cold, wet, or windy it might be!

Date:

Astronomy

Feb. 02, 2013 Rise Set
Actual Time 7:24 AM EST 5:46 PM EST
Civil Twilight 6:57 AM EST 6:14 PM EST
Nautical Twilight 6:25 AM EST 6:45 PM EST
Astronomical Twilight 5:54 AM EST 7:16 PM EST
Moon No Moon Rise 10:42 AM EST (2/2)
Length of Visible Light 11h 17m
Length of Day
10h 21m
Waning Gibbous, 60% of the Moon is Illuminated
Feb 2
Waning Gibbous
Feb 3
Last Quarter
Feb 10
New
Feb 17
First Quarter
Feb 25
Full

Hourly Weather History & Observations

Time (EST) Temp. Windchill Dew Point Humidity Pressure Visibility Wind Dir Wind Speed Gust Speed Precip Events Conditions
12:15 AM 5.0 °F - -2.2 °F 72% 30.24 in 10.0 mi Calm Calm - N/A   Clear
12:35 AM 5.0 °F - -2.2 °F 72% 30.24 in 10.0 mi Calm Calm - N/A   Clear
12:55 AM 5.0 °F - -2.2 °F 72% 30.24 in 10.0 mi Calm Calm - N/A   Clear
1:15 AM 5.0 °F - -0.4 °F 78% 30.23 in 10.0 mi Calm Calm - N/A   Clear
1:35 AM 5.0 °F - -0.4 °F 78% 30.24 in 10.0 mi Calm Calm - N/A   Clear
1:55 AM 5.0 °F -4.1 °F -0.4 °F 78% 30.23 in 10.0 mi SSW 4.6 mph - N/A   Clear
2:15 AM 5.0 °F - -0.4 °F 78% 30.22 in 10.0 mi Calm Calm - N/A   Clear
2:35 AM 3.2 °F - -2.2 °F 78% 30.23 in 10.0 mi Calm Calm - N/A   Clear
2:55 AM 5.0 °F - -0.4 °F 78% 30.23 in 10.0 mi Calm Calm - N/A   Clear
3:15 AM 3.2 °F - -0.4 °F 85% 30.23 in 10.0 mi Calm Calm - N/A   Clear
3:35 AM 3.2 °F - -0.4 °F 85% 30.23 in 10.0 mi Calm Calm - N/A   Clear
3:55 AM 3.2 °F -4.2 °F -0.4 °F 85% 30.22 in 10.0 mi SSW 3.5 mph - N/A   Clear
4:15 AM 3.2 °F -4.2 °F -0.4 °F 85% 30.21 in 10.0 mi SSW 3.5 mph - N/A   Clear
4:35 AM 5.0 °F - -0.4 °F 78% 30.21 in 10.0 mi Calm Calm - N/A   Clear
4:55 AM 6.8 °F -0.1 °F 1.4 °F 79% 30.22 in 10.0 mi WSW 3.5 mph - N/A   Clear
5:15 AM 8.6 °F - 1.4 °F 73% 30.22 in 10.0 mi Calm Calm - N/A   Clear
5:35 AM 3.2 °F - -4.0 °F 72% 30.21 in 10.0 mi Calm Calm - N/A   Clear
5:55 AM 5.0 °F - -0.4 °F 78% 30.21 in 10.0 mi Calm Calm - N/A   Clear
6:15 AM 5.0 °F - -0.4 °F 78% 30.21 in 10.0 mi Calm Calm - N/A   Clear
6:35 AM 1.4 °F - -2.2 °F 85% 30.20 in 10.0 mi Calm Calm - N/A   Clear
6:55 AM 3.2 °F - -0.4 °F 85% 30.20 in 10.0 mi Calm Calm - N/A   Clear
7:35 AM 3.2 °F - -2.2 °F 78% 30.21 in 10.0 mi Calm Calm - N/A   Clear
7:55 AM 3.2 °F - -0.4 °F 85% 30.21 in 10.0 mi Calm Calm - N/A   Clear
8:15 AM 5.0 °F - -0.4 °F 78% 30.20 in 10.0 mi Calm Calm - N/A   Clear
8:35 AM 5.0 °F - -0.4 °F 78% 30.21 in 10.0 mi Calm Calm - N/A   Scattered Clouds
8:55 AM 5.0 °F -2.1 °F 1.4 °F 85% 30.21 in 10.0 mi NNE 3.5 mph - N/A   Overcast
9:15 AM 6.8 °F - 1.4 °F 79% 30.20 in 10.0 mi Calm Calm - N/A   Overcast
9:35 AM 10.4 °F - 3.2 °F 73% 30.19 in 10.0 mi Calm Calm - N/A   Overcast
9:55 AM 10.4 °F - 3.2 °F 73% 30.18 in 10.0 mi Calm Calm - N/A   Overcast
10:15 AM 12.2 °F - 3.2 °F 67% 30.18 in 10.0 mi Calm Calm - N/A   Overcast
10:35 AM 14.0 °F - 3.2 °F 62% 30.17 in 10.0 mi Calm Calm - N/A   Overcast
10:55 AM 15.8 °F - 5.0 °F 62% 30.15 in 10.0 mi Calm Calm - N/A   Overcast
11:15 AM 17.6 °F - 5.0 °F 58% 30.13 in 10.0 mi Calm Calm - N/A   Overcast
11:35 AM 17.6 °F - 6.8 °F 63% 30.12 in 10.0 mi Calm Calm - N/A   Overcast
11:55 AM 19.4 °F - 5.0 °F 54% 30.11 in 10.0 mi Calm Calm - N/A   Overcast
12:15 PM 19.4 °F - 6.8 °F 58% 30.11 in 10.0 mi Calm Calm - N/A   Overcast
12:35 PM 19.4 °F - 5.0 °F 54% 30.10 in 10.0 mi Calm Calm - N/A   Overcast
12:55 PM 21.2 °F - 8.6 °F 58% 30.09 in 7.0 mi Calm Calm - N/A   Overcast
1:15 PM 21.2 °F 11.7 °F 10.4 °F 63% 30.09 in 7.0 mi SW 8.1 mph - N/A   Overcast
1:35 PM 19.4 °F 12.8 °F 10.4 °F 68% 30.07 in 3.0 mi SSW 4.6 mph - N/A Snow Light Snow
1:55 PM 19.4 °F 14.3 °F 14.0 °F 80% 30.06 in 0.5 mi SW 3.5 mph - N/A Snow Snow
2:15 PM 19.4 °F 14.3 °F 15.8 °F 86% 30.03 in 1.5 mi SSW 3.5 mph - N/A Snow Light Snow
2:35 PM 21.2 °F 16.4 °F 17.6 °F 86% 30.02 in 1.0 mi SSW 3.5 mph - N/A Snow Light Snow
2:55 PM 21.2 °F - 17.6 °F 86% 30.01 in 1.5 mi Calm Calm - N/A Snow Light Snow
3:15 PM 21.2 °F - 17.6 °F 86% 30.00 in 1.2 mi Calm Calm - N/A   Overcast
3:35 PM 21.2 °F - 17.6 °F 86% 29.99 in 2.0 mi Calm Calm - N/A Snow Light Snow
3:55 PM 21.2 °F - 17.6 °F 86% 29.99 in 1.5 mi Calm Calm - N/A Snow Light Snow
4:15 PM 21.2 °F - 19.4 °F 93% 29.99 in 1.5 mi Calm Calm - N/A Snow Light Snow
4:35 PM 21.2 °F - 19.4 °F 93% 29.98 in 1.0 mi Calm Calm - 0.01 in Snow Light Snow
4:55 PM 21.2 °F 16.4 °F 19.4 °F 93% 29.98 in 0.8 mi NNE 3.5 mph - 0.02 in Snow Light Snow
5:15 PM 21.2 °F - 19.4 °F 93% 29.97 in 0.5 mi Calm Calm - N/A Snow Snow
5:35 PM 21.2 °F 16.4 °F 19.4 °F 93% 29.97 in 1.0 mi NNE 3.5 mph - N/A Snow Snow
5:55 PM 21.2 °F - 19.4 °F 93% 29.97 in 1.0 mi Calm Calm - 0.01 in Snow Snow
6:35 PM 19.4 °F - 19.4 °F 100% 29.97 in 1.0 mi Calm Calm - 0.01 in Snow Snow
6:55 PM 19.4 °F - 19.4 °F 100% 29.97 in 1.2 mi Calm Calm - 0.01 in Snow Snow
7:15 PM 21.2 °F 16.4 °F 19.4 °F 93% 29.97 in 1.8 mi North 3.5 mph - N/A Snow Light Snow
7:55 PM 19.4 °F - 19.4 °F 100% 29.96 in 5.0 mi Calm Calm - 0.01 in Snow Light Snow
8:15 PM 19.4 °F - 19.4 °F 100% 29.96 in 7.0 mi Calm Calm - N/A Snow Light Snow
8:35 PM 21.2 °F - 19.4 °F 93% 29.96 in 4.0 mi Calm Calm - N/A Snow Light Snow
8:55 PM 19.4 °F - 19.4 °F 100% 29.95 in 5.0 mi Calm Calm - N/A Snow Light Snow
9:15 PM 21.2 °F - 19.4 °F 93% 29.95 in 7.0 mi Calm Calm - N/A Snow Light Snow
9:35 PM 21.2 °F 14.9 °F 19.4 °F 93% 29.96 in 7.0 mi SW 4.6 mph - N/A   Scattered Clouds
9:55 PM 23.0 °F 15.8 °F 21.2 °F 93% 29.96 in 7.0 mi WSW 5.8 mph - N/A   Mostly Cloudy
10:15 PM 23.0 °F 15.8 °F 21.2 °F 93% 29.96 in 5.0 mi WSW 5.8 mph - N/A Snow Light Snow
10:35 PM 24.8 °F 19.1 °F 21.2 °F 86% 29.95 in 5.0 mi WSW 4.6 mph - N/A Snow Light Snow
10:55 PM 24.8 °F 16.9 °F 21.2 °F 86% 29.95 in 5.0 mi WSW 6.9 mph - N/A Snow Light Snow
11:15 PM 24.8 °F 19.1 °F 21.2 °F 86% 29.93 in 10.0 mi SW 4.6 mph - N/A   Overcast
11:35 PM 23.0 °F 17.0 °F 21.2 °F 93% 29.93 in 7.0 mi WSW 4.6 mph - N/A   Overcast
11:55 PM 23.0 °F 17.0 °F 21.2 °F 93% 29.93 in 10.0 mi WSW 4.6 mph - N/A   Overcast